Location: Ciula Mare
(45.6000°N, 22.8167°E)
Time: 06:27:49
(UTC+00:00)

USA 290 - Pass Details

Date: 03 February 2023
Orbit: 401 x 409 km, 73.6° (Epoch: 13 March)

Event Time Altitude Azimuth Distance (km) Brightness Sun altitude
Rises 15:53:45 0° 208° (SSW) 2,335 6.9 -3.5°
Reaches altitude 10° 15:55:47 10° 212° (SSW) 1,482 5.9 -3.8°
Maximum altitude 15:59:00 61° 293° (WNW) 477 2.8 -4.3°
Drops below altitude 10° 16:02:17 10° 15° (NNE) 1,503 4.7 -4.9°
Enters shadow 16:05:25 -4° 21° (NNE) 2,818 6.1 -5.4°
